PBO Station Position Time Series. Reference Frame : NAM14
Format Version,1.1.0
4-character ID,LWCK
Station name,Lewis_and_Clark
Begin Date, 2012-02-11
End Date, 2019-10-07
Release Date, 2019-10-08
Reference position, 46.2781335147 North Latitude, -124.0538453178 East Longitude, 39.05899 meters elevation,
Date, North (mm), East (mm), Vertical (mm), North Std. Deviation (mm), East Std. Deviation (mm),              Vertical Std. Deviation (mm), Quality,
2012-02-11,0.00, 0.00, 0.00, 2.29, 1.61, 7.51, repro,
2012-02-12,1.47, 1.49, 0.15, 2.31, 1.61, 7.56, repro,
2012-02-13,0.18, -0.09, 3.80, 2.57, 1.69, 8.04, repro,
2012-02-14,1.31, -0.67, -3.82, 2.34, 1.63, 7.62, repro,
2012-02-15,3.18, 1.17, 2.84, 2.28, 1.58, 7.35, repro,
2012-02-16,0.92, 2.30, 0.20, 2.28, 1.60, 7.44, repro,
2012-02-17,1.78, 1.22, -4.93, 2.34, 1.66, 7.70, repro,
2012-02-18,0.64, 1.24, -3.01, 2.82, 1.99, 9.54, repro,
2012-02-19,3.14, 0.85, 1.75, 2.40, 1.72, 8.07, repro,
2012-02-20,1.16, -0.08, 4.83, 2.31, 1.60, 7.50, repro,
2012-02-21,0.48, 0.66, 5.26, 2.40, 1.69, 7.90, repro,
2012-02-22,1.76, 0.46, 4.61, 2.42, 1.67, 7.80, repro,
2012-02-23,2.51, 1.11, 0.25, 2.35, 1.64, 7.66, repro,
2012-02-24,3.45, 0.86, -6.32, 2.40, 1.62, 7.55, repro,
2012-02-25,2.33, -0.47, 1.75, 2.28, 1.57, 7.41, repro,
2012-02-26,3.21, 3.10, 5.03, 2.32, 1.63, 7.70, repro,
2012-02-27,2.59, 1.99, -0.72, 2.50, 1.75, 8.09, repro,
2012-02-28,-1.50, -0.02, 15.97, 6.13, 3.63, 19.46, repro,
2012-02-29,1.74, 1.30, -1.35, 2.26, 1.60, 7.48, repro,
2012-03-01,1.07, 0.18, -1.43, 2.30, 1.58, 7.43, repro,
2012-03-02,1.74, 1.10, -2.54, 2.73, 2.11, 9.53, repro,
2012-03-03,2.39, 1.87, 4.29, 2.31, 1.59, 7.52, repro,
2012-03-04,2.35, 0.52, -4.84, 2.30, 1.57, 7.49, repro,
2012-03-05,2.67, 0.94, -2.76, 2.25, 1.54, 7.29, repro,
2012-03-06,0.91, 1.50, -5.15, 2.41, 1.64, 7.66, repro,
2012-03-07,1.24, 1.18, 4.37, 2.30, 1.58, 7.49, repro,
2012-03-08,4.77, 1.85, -1.09, 2.40, 1.60, 7.54, repro,
2012-03-09,2.49, 0.51, -1.56, 2.46, 1.62, 7.64, repro,
2012-03-10,2.61, 2.31, 6.37, 2.36, 1.64, 7.69, repro,
2012-03-11,2.33, 0.28, 7.78, 2.41, 1.59, 7.62, repro,
2012-03-12,1.24, 1.16, 10.77, 2.51, 1.74, 8.10, repro,
2012-03-13,0.79, -0.70, -10.84, 2.34, 1.59, 7.61, repro,
2012-03-14,2.60, -0.28, -1.05, 2.30, 1.56, 7.39, repro,
2012-03-15,1.09, 0.42, -0.18, 2.49, 1.62, 7.78, repro,
2012-03-16,3.13, -1.94, -7.94, 2.48, 1.78, 8.25, repro,
2012-03-17,2.89, -1.38, -1.06, 2.28, 1.54, 7.29, repro,
2012-03-18,1.72, -1.30, -5.70, 2.35, 1.59, 7.51, repro,
2012-03-19,4.50, -2.26, -0.20, 2.58, 1.77, 8.14, repro,
2012-03-20,3.92, -1.07, -0.64, 2.36, 1.63, 7.64, repro,
2012-03-21,2.49, -0.17, -10.98, 2.44, 1.72, 8.04, repro,
2012-03-22,3.20, 0.76, -9.10, 2.34, 1.61, 7.53, repro,
2012-03-23,4.36, 0.12, -8.60, 2.29, 1.57, 7.34, repro,
2012-03-24,2.71, 0.68, -3.34, 2.30, 1.58, 7.48, repro,
2012-03-25,2.82, 0.10, -2.34, 2.84, 2.26, 9.81, repro,
2012-03-26,4.25, -1.02, 0.96, 2.32, 1.59, 7.43, repro,
2012-03-27,2.44, -0.94, 0.47, 2.33, 1.58, 7.46, repro,
2012-03-28,1.73, 0.26, -3.08, 2.38, 1.66, 7.77, repro,
2012-03-29,1.52, 0.20, 1.14, 2.31, 1.57, 7.40, repro,
2012-03-30,-0.66, -1.76, 5.10, 2.51, 1.66, 8.05, repro,
2012-03-31,2.59, -0.07, 10.61, 2.26, 1.57, 7.39, repro,
2012-04-01,4.44, 0.32, -0.17, 2.63, 1.85, 8.55, repro,
2012-04-02,3.05, 1.85, -5.40, 2.28, 1.59, 7.46, repro,
2012-04-03,2.02, 0.72, -11.29, 2.25, 1.56, 7.33, repro,
2012-04-04,3.90, 1.86, -7.98, 2.69, 2.01, 9.39, repro,
2012-04-05,2.91, 2.67, -7.37, 2.71, 1.82, 8.75, repro,
2012-04-06,3.16, 1.97, 0.95, 2.21, 1.55, 7.22, repro,
2012-04-07,4.24, 1.77, -5.62, 2.25, 1.56, 7.31, repro,
2012-04-08,3.43, 1.75, -4.04, 2.26, 1.57, 7.39, repro,
2012-04-09,3.99, 0.55, -7.54, 2.29, 1.57, 7.38, repro,
2012-04-10,1.81, -0.02, -11.59, 2.26, 1.56, 7.32, repro,
2012-04-11,3.80, 0.86, -4.40, 2.24, 1.55, 7.33, repro,
2012-04-12,3.03, 0.76, -9.02, 2.67, 1.79, 8.74, repro,
2012-04-13,3.34, 0.55, -4.05, 2.26, 1.58, 7.47, repro,
2012-04-14,4.61, 0.06, -10.44, 2.25, 1.56, 7.41, repro,
2012-04-15,4.00, 1.23, -6.81, 2.27, 1.54, 7.32, repro,
2012-04-16,1.34, 2.05, -6.52, 2.25, 1.55, 7.34, repro,
2012-04-17,4.58, 1.51, -3.36, 2.29, 1.59, 7.45, repro,
2012-04-18,0.20, -0.28, -4.95, 2.60, 1.81, 8.57, repro,
2012-04-19,1.82, 0.21, -15.03, 2.27, 1.56, 7.43, repro,
2012-04-20,2.63, 2.61, -6.06, 2.86, 1.83, 8.88, repro,
2012-04-21,4.18, 0.82, -13.94, 2.25, 1.55, 7.32, repro,
2012-04-22,2.55, 0.76, -9.23, 2.36, 1.67, 7.81, repro,
2012-04-23,3.58, -0.16, -11.30, 2.28, 1.56, 7.40, repro,
2012-04-24,1.10, 1.27, 3.28, 2.31, 1.62, 7.59, repro,
2012-04-25,1.44, -0.51, -4.60, 2.31, 1.61, 7.55, repro,
2012-04-26,3.67, 0.60, -6.38, 2.26, 1.55, 7.35, repro,
2012-04-27,2.74, 0.48, -2.65, 2.41, 1.61, 7.68, repro,
2012-04-28,2.68, 2.05, -4.96, 2.61, 1.88, 8.76, repro,
2012-04-29,5.42, 0.74, -4.96, 2.25, 1.58, 7.38, repro,
2012-04-30,1.46, 1.11, -2.24, 2.30, 1.61, 7.61, repro,
2012-05-01,0.66, 2.09, 1.20, 2.29, 1.59, 7.52, repro,
2012-05-02,4.13, 1.47, -0.21, 2.35, 1.62, 7.63, repro,
2012-05-03,2.52, -0.41, -3.74, 2.31, 1.56, 7.43, repro,
2012-05-04,3.22, 1.47, -1.11, 2.30, 1.61, 7.53, repro,
2012-05-05,3.46, 1.51, -8.93, 2.24, 1.57, 7.32, repro,
2012-05-06,4.98, 1.36, -14.12, 2.31, 1.62, 7.68, repro,
2012-05-07,3.31, 1.90, -14.53, 2.29, 1.59, 7.42, repro,
2012-05-08,5.50, 1.08, -3.24, 2.27, 1.57, 7.48, repro,
2012-05-09,2.73, 0.59, -7.80, 2.24, 1.55, 7.26, repro,
2012-05-10,6.83, 0.77, -1.76, 2.26, 1.56, 7.39, repro,
2012-05-11,6.63, -0.80, -12.35, 2.35, 1.67, 7.74, repro,
2012-05-12,4.03, -0.94, -7.67, 2.23, 1.53, 7.25, repro,
2012-05-13,2.95, -0.02, -11.85, 2.47, 1.79, 8.22, repro,
2012-05-14,4.11, 1.02, 0.01, 2.23, 1.55, 7.28, repro,
2012-05-15,4.07, 0.99, 1.58, 2.23, 1.54, 7.25, repro,
2012-05-16,4.90, -0.47, -3.88, 2.24, 1.57, 7.39, repro,
2012-05-17,4.67, -1.79, 2.16, 2.24, 1.56, 7.33, repro,
2012-05-18,4.95, -0.45, -3.36, 2.29, 1.58, 7.44, repro,
2012-05-19,3.79, 0.43, -8.46, 2.30, 1.58, 7.44, repro,
2012-05-20,2.68, 1.56, 8.14, 2.34, 1.61, 7.53, repro,
2012-05-21,4.21, 1.97, -2.14, 2.35, 1.65, 7.72, repro,
2012-05-22,1.60, 1.07, 0.95, 2.31, 1.60, 7.52, repro,
2012-05-23,2.64, 1.44, 1.23, 2.31, 1.59, 7.51, repro,
2012-05-24,4.08, 0.07, 7.85, 2.28, 1.58, 7.48, repro,
2012-05-25,3.93, -1.13, -1.02, 2.34, 1.61, 7.56, repro,
2012-05-26,4.06, -0.06, -5.05, 2.33, 1.60, 7.54, repro,
2012-05-27,5.15, -0.08, 4.55, 2.30, 1.62, 7.51, repro,
2012-05-28,4.92, -0.54, -4.68, 2.28, 1.61, 7.52, repro,
2012-05-29,3.81, -0.11, -6.02, 2.31, 1.60, 7.43, repro,
2012-05-30,2.22, 0.33, 5.70, 2.25, 1.56, 7.42, repro,
2012-05-31,3.86, 1.07, -5.66, 2.76, 2.22, 9.99, repro,
2012-06-01,4.37, 1.13, 4.01, 2.28, 1.57, 7.45, repro,
2012-06-02,3.52, -0.13, 5.16, 2.44, 1.63, 7.75, repro,
2012-06-03,3.70, -0.66, -3.22, 2.26, 1.56, 7.37, repro,
2012-06-04,2.17, -0.25, 3.99, 2.29, 1.61, 7.52, repro,
2012-06-05,2.54, 2.05, 5.48, 2.29, 1.56, 7.43, repro,
2012-06-06,4.86, 1.84, 6.48, 2.33, 1.60, 7.55, repro,
2012-06-07,2.27, 0.44, -2.10, 2.29, 1.60, 7.61, repro,
2012-06-08,3.65, 1.83, 8.85, 2.28, 1.57, 7.45, repro,
2012-06-09,3.44, -0.14, 3.80, 2.25, 1.55, 7.34, repro,
2012-06-10,3.53, 2.37, 7.36, 2.29, 1.57, 7.44, repro,
2012-06-11,2.80, 1.33, 0.89, 2.30, 1.59, 7.53, repro,
2012-06-12,2.22, 0.94, 0.85, 2.40, 1.62, 7.71, repro,
2012-06-13,3.38, -0.18, 2.93, 2.26, 1.56, 7.38, repro,
2012-06-14,4.55, -3.50, -9.90, 3.69, 2.59, 11.66, repro,
2012-06-15,2.78, 0.11, 6.32, 2.28, 1.57, 7.44, repro,
2012-06-16,3.35, 2.18, 4.57, 2.30, 1.56, 7.48, repro,
2012-06-17,4.28, 1.64, 12.43, 2.38, 1.58, 7.72, repro,
2012-06-18,2.96, 0.31, -0.28, 2.76, 2.00, 8.97, repro,
2012-06-19,2.97, -0.10, 0.25, 2.32, 1.60, 7.55, repro,
2012-06-20,4.23, -0.88, -1.31, 2.26, 1.54, 7.34, repro,
2012-06-21,4.34, -1.29, 0.13, 2.28, 1.58, 7.52, repro,
2012-06-22,4.07, 0.74, -0.17, 2.28, 1.56, 7.41, repro,
2012-06-23,3.07, -0.22, 2.17, 2.56, 1.74, 8.49, repro,
2012-06-24,2.51, 0.07, 2.42, 2.32, 1.58, 7.54, repro,
2012-06-25,0.79, -0.15, 6.56, 2.31, 1.57, 7.52, repro,
2012-06-26,1.88, -0.73, -2.10, 2.94, 1.92, 9.54, repro,
2012-06-27,3.69, 0.54, 0.91, 2.26, 1.55, 7.31, repro,
2012-06-28,1.88, 0.77, 9.95, 2.33, 1.60, 7.68, repro,
2012-06-29,2.30, 0.11, 0.17, 2.30, 1.58, 7.53, repro,
2012-06-30,3.99, -0.38, 4.21, 2.27, 1.56, 7.42, repro,
2012-07-01,3.42, -1.98, 3.96, 2.32, 1.58, 7.43, repro,
2012-07-02,5.33, -0.66, 4.27, 2.26, 1.56, 7.36, repro,
2012-07-03,1.91, 1.73, 6.06, 2.31, 1.58, 7.53, repro,
2012-07-04,2.85, 0.74, -4.84, 2.31, 1.58, 7.57, repro,
2012-07-05,5.35, -0.93, -0.02, 2.37, 1.61, 7.73, repro,
2012-07-06,3.47, -1.60, -1.75, 2.31, 1.59, 7.57, repro,
2012-07-07,5.73, -4.41, -13.74, 2.64, 1.97, 9.03, repro,
2012-07-08,1.37, 1.28, 6.16, 2.27, 1.56, 7.31, repro,
2012-07-09,1.70, 0.78, 1.84, 2.54, 1.86, 8.84, repro,
2012-07-10,2.71, -2.11, -5.88, 2.70, 1.96, 8.92, repro,
2012-07-11,5.68, -0.47, -1.07, 2.41, 1.66, 7.76, repro,
2012-07-12,4.49, -0.56, 4.41, 2.26, 1.56, 7.31, repro,
2012-07-13,4.66, -0.18, 1.41, 2.26, 1.55, 7.28, repro,
2012-07-14,4.33, 0.18, 10.05, 2.30, 1.56, 7.52, repro,
2012-07-15,2.17, 0.24, 13.90, 2.32, 1.58, 7.53, repro,
2012-07-16,5.47, 1.71, 2.02, 2.84, 1.99, 9.46, repro,
2012-07-17,4.77, -0.85, -1.40, 2.28, 1.55, 7.40, repro,
2012-07-18,5.68, -2.48, 0.46, 2.68, 1.86, 8.78, repro,
2012-07-19,3.51, -0.53, 6.04, 2.26, 1.54, 7.35, repro,
2012-07-20,3.46, 0.26, 4.31, 2.37, 1.63, 7.76, repro,
2012-07-21,2.84, -0.79, 5.70, 2.32, 1.55, 7.41, repro,
2012-07-22,5.33, -0.88, 3.08, 2.29, 1.56, 7.37, repro,
2012-07-23,4.97, -2.15, -4.37, 2.27, 1.53, 7.23, repro,
2012-07-24,3.85, -0.53, 3.72, 2.34, 1.56, 7.43, repro,
2012-07-25,4.20, -0.26, 9.27, 2.36, 1.55, 7.45, repro,
2012-07-26,2.51, 0.12, 9.12, 2.31, 1.58, 7.56, repro,
2012-07-27,3.29, -0.04, 6.27, 2.32, 1.58, 7.64, repro,
2012-07-28,4.09, -0.31, 5.58, 2.29, 1.59, 7.56, repro,
2012-07-29,4.24, 0.26, 2.92, 2.25, 1.55, 7.35, repro,
2012-07-30,3.78, -0.61, 4.94, 2.27, 1.56, 7.45, repro,
2012-07-31,4.34, -0.22, 15.73, 2.46, 1.72, 8.27, repro,
2012-08-01,2.69, 1.11, 12.28, 2.47, 1.77, 8.24, repro,
2012-08-02,3.55, 1.26, 7.55, 2.56, 1.86, 8.61, repro,
2012-08-03,3.32, -0.34, 9.09, 2.36, 1.63, 7.60, repro,
2012-08-04,2.95, 0.03, 15.40, 2.27, 1.58, 7.55, repro,
2012-08-05,2.30, 1.07, 13.60, 3.44, 2.36, 11.02, repro,
2012-08-16,1.82, 2.39, 25.23, 3.07, 2.10, 10.02, repro,
2012-08-17,3.73, 0.66, 7.90, 2.68, 2.00, 9.19, repro,
2012-08-18,3.58, -0.73, 2.51, 2.28, 1.58, 7.55, repro,
2012-08-19,1.88, -0.79, 4.56, 2.27, 1.62, 7.62, repro,
2012-08-20,6.09, -0.94, 10.61, 2.60, 1.81, 8.87, repro,
2012-08-21,1.75, -0.93, 4.49, 2.31, 1.57, 7.49, repro,
2012-08-22,2.93, -0.97, 8.53, 2.67, 1.88, 8.77, repro,
2012-08-23,2.69, -0.84, 6.70, 2.33, 1.58, 7.51, repro,
2012-08-24,3.81, -0.96, 6.02, 2.24, 1.54, 7.27, repro,
2012-08-25,2.42, 0.33, 13.81, 2.61, 1.96, 9.32, repro,
2012-08-26,2.00, 0.80, 15.05, 2.37, 1.64, 7.78, repro,
2012-08-27,0.09, 2.26, 15.74, 2.34, 1.63, 7.76, repro,
2012-08-28,4.16, 0.35, 12.57, 2.29, 1.60, 7.57, repro,
2012-08-29,2.01, -0.63, 8.37, 2.35, 1.62, 7.69, repro,
2012-08-30,2.51, 0.04, 11.98, 2.35, 1.64, 7.69, repro,
2012-08-31,1.91, 0.37, 12.75, 2.24, 1.57, 7.44, repro,
2012-09-01,3.49, 0.61, 0.07, 2.36, 1.60, 7.70, repro,
2012-09-02,2.98, 0.31, 10.58, 2.44, 1.67, 7.95, repro,
2012-09-03,1.86, 1.00, 10.49, 2.26, 1.57, 7.34, repro,
2012-09-04,2.46, 1.15, 10.70, 2.29, 1.58, 7.44, repro,
2012-09-05,3.70, 0.22, 14.23, 2.36, 1.64, 7.71, repro,
2012-09-06,2.93, 2.14, 18.78, 2.26, 1.60, 7.54, repro,
2012-09-07,2.11, 1.85, 11.44, 2.33, 1.64, 7.61, repro,
2012-09-08,2.55, 0.94, 5.51, 2.53, 1.83, 8.48, repro,
2012-09-09,2.94, 1.34, 8.48, 2.26, 1.55, 7.26, repro,
2012-09-10,4.55, 1.23, 10.48, 2.33, 1.59, 7.47, repro,
2012-09-11,4.28, -0.32, 8.01, 2.34, 1.61, 7.59, repro,
2012-09-12,4.77, 2.42, 13.52, 2.35, 1.64, 7.69, repro,
2012-09-13,1.40, 0.12, -3.02, 2.59, 1.90, 8.80, repro,
2012-09-14,2.80, 0.07, 9.17, 2.29, 1.58, 7.40, repro,
2012-09-15,3.32, -0.57, 7.66, 2.28, 1.58, 7.41, repro,
2012-09-16,4.93, 0.54, 4.64, 2.38, 1.65, 7.68, repro,
2012-09-17,2.91, 1.21, 14.84, 2.31, 1.61, 7.55, repro,
2012-09-18,3.38, 1.10, 15.65, 2.30, 1.63, 7.60, repro,
2012-09-19,2.65, -0.08, 8.47, 2.31, 1.57, 7.42, repro,
2012-09-20,2.80, -0.19, 16.55, 2.30, 1.62, 7.53, repro,
2012-09-21,4.62, 1.20, 13.99, 2.28, 1.56, 7.38, repro,
2012-09-22,4.02, 0.51, 13.10, 2.38, 1.66, 7.76, repro,
2012-09-23,3.31, 1.93, 14.92, 2.25, 1.58, 7.38, repro,
2012-09-24,3.46, 0.79, 8.08, 2.79, 1.93, 9.12, repro,
2012-09-25,4.06, -1.78, 8.69, 2.34, 1.67, 7.75, repro,
2012-09-26,2.93, -0.31, 7.87, 2.30, 1.60, 7.50, repro,
2012-09-27,3.91, 0.34, 20.09, 2.88, 1.97, 9.51, repro,
2012-09-28,5.32, 0.12, 17.78, 2.39, 1.71, 8.01, repro,
2012-09-29,2.59, -0.03, 14.54, 2.27, 1.58, 7.43, repro,
2012-09-30,4.44, -0.53, 6.01, 2.31, 1.62, 7.64, repro,
2012-10-01,3.24, 1.49, 7.86, 2.35, 1.62, 7.61, repro,
2012-10-02,3.49, -0.06, 12.68, 2.23, 1.56, 7.31, repro,
2012-10-03,5.18, 1.29, 8.89, 2.26, 1.58, 7.39, repro,
2012-10-04,3.62, 1.50, 11.47, 2.26, 1.59, 7.43, repro,
2012-10-05,2.50, 0.51, 9.32, 2.27, 1.60, 7.44, repro,
2012-10-06,2.67, 0.79, 6.07, 2.30, 1.61, 7.64, repro,
2012-10-07,2.30, 0.91, 15.59, 2.32, 1.59, 7.50, repro,
2012-10-08,2.88, 0.23, 10.58, 2.30, 1.59, 7.49, repro,
2012-10-09,4.89, -0.09, 4.32, 2.33, 1.64, 7.61, repro,
2012-10-10,2.94, 0.91, 10.26, 2.36, 1.64, 7.67, repro,
2012-10-11,4.21, -0.12, -4.03, 2.80, 2.19, 9.94, repro,
2012-10-12,3.31, 0.73, 16.28, 2.37, 1.64, 7.83, repro,
2012-10-13,2.28, 2.42, 4.65, 2.33, 1.70, 7.79, repro,
2012-10-14,1.41, -1.48, 5.80, 2.55, 1.79, 8.30, repro,
2012-10-15,2.38, -0.23, 16.37, 2.41, 1.64, 7.82, repro,
2012-10-16,2.36, 0.65, 14.24, 2.35, 1.61, 7.63, repro,
2012-10-17,4.90, 1.50, 2.85, 2.34, 1.58, 7.52, repro,
2012-10-18,2.58, 2.46, 8.08, 2.31, 1.59, 7.54, repro,
2012-10-19,5.47, 1.82, 7.06, 2.32, 1.59, 7.55, repro,
2012-10-20,4.00, 1.60, 12.65, 2.40, 1.68, 7.88, repro,
2012-10-21,2.97, 1.02, 5.12, 2.73, 2.06, 9.55, repro,
2012-10-22,1.96, 0.10, 10.75, 2.81, 1.86, 8.86, repro,
2012-11-14,7.71, 1.27, 0.61, 4.73, 3.75, 15.84, repro,
2012-11-15,1.97, 2.36, -5.90, 2.40, 1.64, 7.74, repro,
2012-11-16,3.16, 1.85, -0.41, 2.30, 1.57, 7.39, repro,
2012-11-17,-0.21, 0.54, 7.73, 2.32, 1.59, 7.53, repro,
2013-02-07,1.18, -0.33, -7.97, 3.23, 2.29, 12.17, repro,
2013-02-08,3.28, 3.03, 5.72, 3.35, 2.43, 12.85, repro,
2013-02-12,3.32, 3.82, -15.80, 3.72, 3.01, 15.29, repro,
2013-02-13,0.31, 0.24, -13.53, 3.42, 2.42, 12.83, repro,
2013-02-14,-0.51, 2.28, -2.41, 3.19, 2.28, 12.08, repro,
2013-02-15,2.27, 1.84, -8.33, 3.15, 2.22, 11.70, repro,
2013-02-16,4.66, 0.59, -17.00, 3.04, 2.25, 11.60, repro,
2013-02-17,2.44, 2.27, -12.75, 3.10, 2.26, 12.01, repro,
2013-02-18,1.49, 0.70, -12.44, 3.38, 2.38, 12.98, repro,
2013-02-19,-2.70, 1.95, 2.24, 3.44, 2.39, 12.84, repro,
2013-02-20,-0.41, 2.49, 7.39, 3.42, 2.39, 12.84, repro,
2013-02-21,1.38, 3.63, -13.09, 3.41, 2.32, 12.38, repro,
2013-02-22,0.18, -1.42, -14.01, 3.46, 2.36, 12.44, repro,
2013-02-23,3.02, 2.06, -6.28, 3.55, 2.41, 12.75, repro,
2013-02-24,1.86, 2.02, -4.30, 3.30, 2.43, 13.06, repro,
2013-02-25,0.08, 0.98, -10.84, 3.42, 2.44, 13.04, repro,
2013-02-26,1.16, 3.94, 0.59, 4.05, 3.06, 15.81, repro,
2013-02-27,1.55, 1.77, -19.12, 3.34, 2.30, 12.22, repro,
2013-02-28,1.22, 0.17, -7.91, 3.25, 2.48, 12.93, repro,
2013-03-01,-1.21, 0.95, -11.53, 3.33, 2.30, 12.37, repro,
2013-03-02,1.43, -1.49, -24.96, 3.40, 2.42, 12.76, repro,
2013-03-03,2.37, 0.84, -15.88, 3.20, 2.30, 12.14, repro,
2013-03-04,-0.18, 0.68, -18.61, 3.34, 2.37, 12.57, repro,
2013-03-05,0.85, -0.14, -22.44, 4.23, 3.40, 18.70, repro,
2013-03-06,3.16, 0.39, -14.98, 3.34, 2.37, 12.72, repro,
2013-03-07,4.49, 0.14, -9.96, 3.78, 2.61, 14.33, repro,
2013-03-08,4.73, 1.68, -9.51, 3.44, 2.50, 13.31, repro,
2013-03-09,2.11, 1.44, -10.73, 3.25, 2.38, 12.58, repro,
2013-03-10,0.57, 3.73, -10.87, 3.38, 2.46, 13.16, repro,
2013-03-11,-0.73, 1.27, -10.74, 3.35, 2.51, 13.47, repro,
2013-03-12,0.17, 3.96, 1.28, 3.67, 2.54, 13.80, repro,
2013-03-13,1.39, 1.88, 0.03, 3.30, 2.43, 12.85, repro,
2013-03-14,2.12, 3.69, -4.15, 3.34, 2.41, 12.93, repro,
2013-03-15,0.48, 3.17, -1.45, 3.53, 2.47, 13.38, repro,
2013-03-16,1.15, 3.17, -9.65, 3.47, 2.52, 13.14, repro,
2013-03-17,2.57, 0.73, -19.15, 3.32, 2.50, 12.96, repro,
2013-03-18,1.98, 2.31, 0.33, 3.37, 2.46, 12.72, repro,
2013-03-19,3.47, 4.42, 7.37, 3.19, 2.42, 12.83, repro,
2013-03-20,2.25, 1.51, -11.56, 3.50, 2.67, 13.55, repro,
2013-03-21,4.70, 2.93, -11.71, 3.20, 2.34, 12.15, repro,
2013-03-22,1.95, 0.73, -7.78, 3.22, 2.47, 12.86, repro,
2013-03-23,3.98, 2.20, -12.27, 3.56, 2.55, 13.82, repro,
2013-03-24,2.28, 0.78, -8.86, 3.35, 2.55, 13.29, repro,
2013-03-25,2.03, 2.33, -4.33, 3.51, 2.59, 13.43, repro,
2013-03-26,2.60, 2.27, -5.62, 3.49, 2.50, 13.22, repro,
2013-03-27,0.92, 1.89, -7.79, 3.22, 2.37, 12.25, repro,
2013-03-28,3.53, 2.18, -23.77, 3.34, 2.47, 13.13, repro,
2013-03-29,2.58, 1.94, -10.76, 3.24, 2.39, 12.78, repro,
2013-03-30,3.74, 1.55, -18.27, 3.85, 3.06, 16.35, repro,
2013-03-31,4.69, 2.25, -0.55, 3.29, 2.38, 12.65, repro,
2013-04-01,1.09, 3.98, -2.56, 3.35, 2.45, 12.84, repro,
2013-04-02,3.46, 1.38, -9.86, 2.93, 2.29, 11.57, repro,
2013-04-03,3.85, 1.80, -27.53, 3.48, 2.53, 13.34, repro,
2013-04-04,2.83, 2.00, -21.96, 3.22, 2.48, 12.45, repro,
2013-04-05,3.39, 2.62, 6.32, 3.43, 2.88, 14.15, repro,
2013-04-06,1.04, 1.10, 10.59, 3.34, 2.69, 13.59, repro,
2013-04-07,2.23, 2.07, -4.26, 3.12, 2.40, 12.08, repro,
2013-04-08,3.56, 0.09, -22.65, 3.29, 2.49, 13.09, repro,
2013-04-09,1.73, 0.33, -10.16, 3.27, 2.45, 12.82, repro,
2013-04-10,2.44, 0.39, -16.35, 3.24, 2.47, 13.02, repro,
2013-04-11,2.65, 1.86, 7.22, 3.06, 2.36, 11.88, repro,
2013-04-12,1.56, 2.84, 15.75, 3.27, 2.52, 12.98, repro,
2013-04-13,-0.26, -0.07, 0.21, 3.13, 2.46, 12.63, repro,
2013-04-14,4.59, 1.00, -10.43, 3.26, 2.48, 13.02, repro,
2013-04-15,3.25, 1.90, -6.14, 3.33, 2.54, 13.50, repro,
2013-04-16,4.97, 1.70, 4.44, 3.38, 2.72, 13.92, repro,
2013-04-17,2.34, 2.61, -14.70, 3.30, 2.48, 13.00, repro,
2013-04-18,1.71, 2.80, -15.56, 3.25, 2.42, 12.81, repro,
2013-04-19,1.78, 0.57, -13.21, 3.48, 2.70, 14.75, repro,
2013-04-26,2.09, 0.78, -14.13, 3.21, 2.51, 13.27, repro,
2013-04-27,-0.07, 1.99, -3.39, 3.30, 2.40, 12.93, repro,
2013-04-28,3.23, 2.02, -17.24, 3.17, 2.34, 12.42, repro,
2013-04-29,1.55, -1.51, -9.99, 3.09, 2.35, 12.39, repro,
2013-04-30,3.88, -1.18, -14.34, 3.17, 2.27, 11.79, repro,
2013-05-01,1.52, -0.49, -17.68, 3.27, 2.26, 12.00, repro,
2013-05-02,4.46, 3.19, -5.32, 4.08, 3.42, 17.81, repro,
2013-05-03,1.62, 0.42, -10.46, 3.19, 2.33, 12.19, repro,
2013-05-04,4.54, -0.41, -13.05, 3.30, 2.42, 12.59, repro,
2013-05-05,5.78, -2.63, -11.00, 3.07, 2.41, 12.44, repro,
2013-05-06,1.65, -2.08, -4.64, 3.07, 2.30, 11.95, repro,
2013-05-07,1.96, -0.85, -11.09, 3.13, 2.28, 11.85, repro,
2013-05-08,1.37, 2.32, -5.30, 3.71, 3.77, 17.59, repro,
2013-05-09,2.15, 0.63, -11.70, 3.27, 2.45, 12.36, repro,
2013-05-10,3.58, -2.18, -15.63, 3.07, 2.33, 11.93, repro,
2013-05-11,2.91, -0.49, -8.62, 3.37, 2.61, 13.16, repro,
2013-05-12,4.93, -2.41, -14.84, 3.30, 2.54, 13.28, repro,
2013-05-13,1.20, -1.68, -11.69, 3.26, 2.39, 12.26, repro,
2013-05-14,3.46, -2.17, -3.60, 3.05, 2.26, 11.72, repro,
2013-05-15,4.33, -0.89, -7.93, 3.12, 2.34, 11.89, repro,
2013-05-16,1.05, -2.21, -7.96, 3.07, 2.28, 11.68, repro,
2013-05-17,1.54, -3.56, -18.72, 3.25, 2.45, 12.73, repro,
2013-05-18,1.59, -2.32, -7.10, 3.20, 2.34, 11.93, repro,
2013-05-19,2.33, -0.95, -13.73, 3.28, 2.44, 12.40, repro,
2013-05-20,2.15, 0.35, -7.39, 3.15, 2.34, 11.86, repro,
2013-05-21,2.27, -0.52, -14.05, 2.98, 2.24, 11.28, repro,
2013-05-22,4.01, -3.37, -18.88, 3.24, 2.44, 12.33, repro,
2013-05-23,2.81, -1.92, -11.84, 3.10, 2.28, 11.78, repro,
2013-05-24,2.14, -2.40, -14.54, 6.35, 4.90, 24.78, repro,
2013-05-26,4.16, 0.09, -11.84, 4.22, 3.02, 15.14, repro,
2013-05-27,3.19, -2.56, -4.96, 3.07, 2.21, 11.22, repro,
2013-05-28,1.27, -2.09, -8.17, 2.99, 2.19, 11.19, repro,
2013-05-29,2.72, -0.94, 0.05, 3.13, 2.42, 12.17, repro,
2013-05-30,-0.32, 0.62, 11.51, 3.22, 2.31, 11.89, repro,
2013-05-31,0.73, 0.51, 0.74, 3.05, 2.27, 11.60, repro,
2013-06-01,5.77, -0.89, -16.38, 3.26, 2.47, 12.82, repro,
2013-06-02,3.06, -2.25, -10.62, 3.31, 2.45, 12.98, repro,
2013-06-03,2.01, -2.42, -3.16, 3.74, 2.74, 14.39, repro,
2013-06-04,0.65, -1.66, -2.60, 3.23, 2.40, 12.54, repro,
2013-06-05,0.21, -1.05, -6.84, 3.22, 2.31, 11.82, repro,
2013-06-06,0.31, 0.10, -1.20, 3.21, 2.34, 12.29, repro,
2013-06-07,3.76, -0.23, -6.95, 3.11, 2.31, 11.97, repro,
2013-06-08,-0.24, -0.90, -7.05, 3.28, 2.40, 12.40, repro,
2013-06-09,1.52, -3.68, -9.27, 3.56, 2.55, 13.38, repro,
2013-06-10,0.21, -5.16, -12.79, 3.53, 2.55, 13.22, repro,
2013-06-11,2.35, -2.76, -4.40, 3.14, 2.25, 11.61, repro,
2013-06-12,3.23, -1.48, -12.74, 3.23, 2.41, 12.45, repro,
2013-06-13,3.66, -4.01, -26.83, 3.17, 2.33, 12.11, repro,
2013-06-14,0.82, -3.11, -4.34, 3.17, 2.25, 11.50, repro,
2013-06-15,2.04, -1.50, -6.03, 3.20, 2.25, 11.71, repro,
2013-06-16,2.88, -1.64, -1.66, 3.74, 2.92, 14.97, repro,
2013-06-17,3.12, -4.32, -6.92, 4.07, 3.10, 16.69, repro,
2013-06-18,3.74, -4.67, -14.38, 3.15, 2.30, 11.50, repro,
2013-06-19,0.78, -3.68, -9.42, 3.66, 2.65, 14.73, repro,
2013-06-20,2.99, -1.85, 3.99, 3.24, 2.37, 12.19, repro,
2013-06-21,3.14, -3.23, -18.05, 3.60, 3.10, 14.86, repro,
2013-06-22,1.02, -1.29, 6.69, 3.06, 2.23, 11.52, repro,
2013-06-23,-1.76, -0.77, 5.92, 4.34, 3.55, 19.91, repro,
2013-06-24,1.88, -0.27, 13.57, 4.52, 3.84, 21.28, repro,
2013-06-25,4.95, -2.32, 9.72, 4.57, 4.02, 16.92, repro,
2013-06-26,0.79, -2.03, 8.47, 3.53, 2.77, 14.47, repro,
2013-06-27,1.94, -4.24, -13.97, 4.15, 3.16, 15.00, repro,
2013-06-28,3.18, -1.27, 13.06, 3.53, 2.69, 13.46, repro,
2013-06-29,5.38, -0.94, 3.02, 4.07, 3.04, 14.60, repro,
2013-06-30,2.34, -5.94, -8.66, 3.70, 2.88, 13.51, repro,
2013-07-01,3.23, -4.20, 5.47, 3.30, 2.35, 11.55, repro,
2013-07-02,2.15, -2.50, 3.33, 2.98, 2.10, 10.87, repro,
2013-07-03,0.99, -4.84, -4.65, 3.64, 2.42, 13.05, repro,
2013-07-04,3.90, -2.81, -10.53, 3.09, 2.15, 11.44, repro,
2013-07-05,3.19, -2.41, 0.55, 2.95, 2.06, 10.67, repro,
2013-07-06,5.65, -2.06, 4.48, 3.14, 2.28, 11.74, repro,
2013-07-07,1.53, -1.64, -3.86, 3.21, 2.17, 11.36, repro,
2013-07-08,2.06, -2.01, 1.35, 3.35, 2.31, 12.14, repro,
2013-07-09,2.24, -1.61, 7.67, 3.04, 2.14, 11.14, repro,
2013-07-10,-0.97, 2.28, 7.94, 3.12, 2.28, 11.78, repro,
2013-07-11,6.19, -3.02, -1.96, 3.29, 2.45, 12.27, repro,
2013-07-12,0.46, -2.70, 4.13, 3.06, 2.21, 11.41, repro,
2013-07-13,1.50, -1.08, 5.34, 3.66, 2.34, 12.22, repro,
2013-07-19,0.35, -0.35, -1.16, 6.33, 6.07, 27.61, repro,
2013-07-20,-5.63, -0.66, 1.06, 6.23, 5.14, 24.41, repro,
2013-07-24,1.78, -2.81, -1.41, 4.64, 3.70, 17.57, repro,
2013-07-25,2.58, -1.20, 3.37, 3.04, 2.10, 10.83, repro,
2013-07-26,4.14, -4.82, -11.74, 3.05, 2.19, 11.41, repro,
2013-07-27,4.06, -2.53, -15.65, 3.07, 2.22, 11.38, repro,
2013-07-28,4.61, -1.82, 0.90, 3.06, 2.21, 11.35, repro,
2013-07-29,4.64, -1.37, 10.75, 3.13, 2.14, 11.43, repro,
2013-07-30,0.46, -1.21, 11.27, 3.08, 2.13, 11.29, repro,
2013-07-31,3.64, -2.06, 4.13, 3.24, 2.37, 12.60, repro,
2013-08-01,1.52, -1.63, -5.14, 3.03, 2.19, 11.23, repro,
2013-08-02,3.62, -1.86, -13.68, 3.00, 2.24, 11.59, repro,
2013-08-03,0.61, -1.71, -2.87, 2.98, 2.14, 11.14, repro,
2013-08-04,1.07, -2.47, 2.12, 3.17, 2.23, 12.01, repro,
2013-08-05,3.68, -1.93, -0.05, 3.41, 2.23, 11.98, repro,
2013-08-06,2.96, -2.73, -6.10, 3.78, 2.83, 14.58, repro,
2013-08-07,1.04, -4.68, -8.30, 3.47, 2.82, 14.23, repro,
2013-08-08,1.31, -1.14, 3.42, 3.07, 2.18, 11.52, repro,
2013-08-09,1.43, -1.42, 4.14, 3.14, 2.22, 11.70, repro,
2013-08-10,-0.10, -2.26, -0.68, 3.48, 2.91, 14.42, repro,
2013-08-11,2.89, -2.58, -3.08, 3.09, 2.22, 11.64, repro,
2013-08-12,1.82, -2.59, -1.54, 3.19, 2.27, 11.91, repro,
2013-08-13,3.46, -0.91, -2.64, 3.38, 2.50, 13.22, repro,
2013-08-14,1.06, -1.85, 6.08, 3.25, 2.35, 12.56, repro,
2013-08-15,2.74, -4.85, -4.69, 3.30, 2.48, 12.59, repro,
2013-08-16,4.32, -3.82, 1.79, 3.27, 2.28, 12.13, repro,